Location: Newark
(25.7507°S, 31.4676°E)
Time: 01:27:41
(UTC+00:00)

LightSail 2 - Visible Passes

Search period start: 29 January 2020 00:00
Search period end: 08 February 2020 00:00
Orbit: 705 x 719 km, 24.0° (Epoch: 28 January)

Date Brightness Start Highest point End Pass type
(mag) Time Alt. Az. Time Alt. Az. Time Alt. Az.
29 Jan 5.5 01:10:06 56° ENE 01:10:06 56° ENE 01:14:19 10° E visible
29 Jan 5.3 02:49:26 10° W 02:54:35 64° N 02:59:42 10° ENE visible
30 Jan 7.8 00:15:19 13° E 00:15:19 13° E 00:15:48 10° E visible
30 Jan 5.1 01:54:15 40° WNW 01:56:05 70° N 02:01:16 10° ENE visible
31 Jan 6.2 00:59:32 38° ENE 00:59:32 38° ENE 01:02:45 10° E visible
31 Jan 5.4 02:38:29 13° W 02:42:59 51° NNW 02:47:59 10° ENE visible
01 Feb 5.1 01:43:51 55° NW 01:44:29 60° N 01:49:35 10° ENE visible
02 Feb 7.1 00:49:19 22° ENE 00:49:19 22° ENE 00:51:08 10° ENE visible
02 Feb 5.8 02:28:17 20° WNW 02:31:16 37° NNW 02:36:01 10° NE visible
03 Feb 5.8 01:33:50 40° NNE 01:33:50 40° NNE 01:37:44 10° ENE visible
04 Feb 6.2 02:18:29 24° NW 02:19:29 25° NNW 02:23:42 10° NNE visible
04 Feb 6.9 18:16:04 10° NNW 18:17:56 17° N 18:17:56 17° N visible
05 Feb 7.1 01:24:13 17° NE 01:24:13 17° NE 01:25:37 10° NE visible
05 Feb 7.1 03:04:28 10° NW 03:06:04 11° NNW 03:07:40 10° N visible
05 Feb 6.9 17:18:36 10° N 17:21:16 14° NNE 17:23:38 11° NE visible
05 Feb 7.3 19:01:35 10° NW 19:02:36 15° NW 19:02:36 15° NW visible
06 Feb 7.0 02:09:01 15° N 02:09:01 15° N 02:10:46 10° NNE visible
06 Feb 6.0 18:03:24 10° NW 18:07:51 29° NNE 18:08:11 29° NNE visible
07 Feb 6.5 17:05:23 10° NNW 17:09:22 23° NNE 17:13:21 10° ENE visible
07 Feb 6.2 18:49:31 10° WNW 18:52:37 34° NW 18:52:37 34° NW visible
